Ord, NE

2:04 PM CST on December 11, 2017 (GMT -0600)
Sharp

Weather History for KODX - July, 2014

Change the Weather History Date:

Tuesday, July 15, 2014

  Actual Average Record
Temperature  
Mean Temperature 60 °F 75 °F  
Max Temperature 74 °F 88 °F 99 °F (2000)
Min Temperature 46 °F 62 °F 46 °F (2014)
Degree Days  
Heating Degree Days 5 0  
Month to date heating degree days 15 0  
Since 1 June heating degree days 47 37  
Since 1 July heating degree days 15 0  
Cooling Degree Days 0 10  
Month to date cooling degree days 73 137  
Year to date cooling degree days 288 340  
Since 1 June cooling degree days 219 299  
Growing Degree Days 10 (Base 50)    
Moisture  
Dew Point 49 °F    
Average Humidity 67    
Maximum Humidity 93    
Minimum Humidity 41    
Precipitation  
Precipitation 0.00 in 0.08 in 2.07 in (1989)
Month to date precipitation 1.71 1.29  
Year to date precipitation 12.01 14.07  
Sea Level Pressure  
Sea Level Pressure 30.18 in    
Wind  
Wind Speed 5 mph (North)    
Max Wind Speed 13 mph    
Max Gust Speed 18 mph    
Visibility 10 miles    
Events      
T = Trace of Precipitation, MM = Missing Value Source: NWS Daily Summary

Daily Weather History Graph

Daily Weather History Graph

Search for Another Location

Airport or City:

Trip Planner

Search our weather history database for the weather conditions in past years. The results will help you decide how hot, cold, wet, or windy it might be!

Date:

Astronomy

Jul. 15, 2014 Rise Set
Actual Time 6:14 AM CDT 9:08 PM CDT
Civil Twilight 5:41 AM CDT 9:41 PM CDT
Nautical Twilight 4:59 AM CDT 10:22 PM CDT
Astronomical Twilight 4:11 AM CDT 11:11 PM CDT
Moon 11:13 PM CDT (7/15) 10:14 AM CDT (7/15)
Length of Visible Light 15h 59m
Length of Day
14h 53m
Waning Gibbous, 85% of the Moon is Illuminated
Jul 15
Waning Gibbous
Jul 18
Last Quarter
Jul 26
New
Aug 3
First Quarter
Aug 10
Full

Hourly Weather History & Observations

Time (CDT) Temp. Windchill Dew Point Humidity Pressure Visibility Wind Dir Wind Speed Gust Speed Precip Events Conditions
12:53 AM 50.0 °F - 46.9 °F 89% 30.25 in 10.0 mi SW 4.6 mph - N/A   Clear
1:53 AM 50.0 °F - 46.9 °F 89% 30.26 in 10.0 mi NW 5.8 mph - N/A   Clear
2:53 AM 48.9 °F - 46.0 °F 90% 30.25 in 10.0 mi NW 5.8 mph - N/A   Clear
3:53 AM 48.9 °F - 46.0 °F 90% 30.25 in 10.0 mi WNW 4.6 mph - N/A   Clear
4:53 AM 46.9 °F - 45.0 °F 93% 30.24 in 10.0 mi NNW 5.8 mph - N/A   Clear
5:53 AM 46.0 °F 43.9 °F 44.1 °F 93% 30.25 in 10.0 mi WNW 4.6 mph - N/A   Clear
6:53 AM 48.0 °F - 46.0 °F 93% 30.24 in 10.0 mi North 4.6 mph - N/A   Clear
7:53 AM 52.0 °F - 48.9 °F 89% 30.24 in 10.0 mi NNW 5.8 mph - N/A   Clear
8:53 AM 57.0 °F - 51.1 °F 81% 30.25 in 10.0 mi Variable 4.6 mph - N/A   Clear
9:53 AM 63.0 °F - 48.9 °F 60% 30.25 in 10.0 mi North 9.2 mph - N/A   Clear
10:53 AM 63.0 °F - 48.0 °F 58% 30.25 in 10.0 mi NNW 8.1 mph - N/A   Partly Cloudy
12:53 PM 69.1 °F - 48.9 °F 49% 30.20 in 10.0 mi Variable 5.8 mph - N/A   Clear
1:53 PM 69.1 °F - 48.0 °F 47% 30.18 in 10.0 mi North 5.8 mph - N/A   Partly Cloudy
2:53 PM 71.1 °F - 48.0 °F 44% 30.15 in 10.0 mi Variable 4.6 mph - N/A   Clear
3:53 PM 73.0 °F - 50.0 °F 44% 30.13 in 10.0 mi Variable 4.6 mph - N/A   Clear
4:53 PM 72.0 °F - 46.9 °F 41% 30.12 in 10.0 mi Variable 3.5 mph - N/A   Clear
5:53 PM 73.0 °F - 48.9 °F 42% 30.09 in 10.0 mi Variable 6.9 mph - N/A   Partly Cloudy
6:53 PM 72.0 °F - 48.9 °F 44% 30.08 in 10.0 mi SE 5.8 mph - N/A   Scattered Clouds
7:53 PM 70.0 °F - 52.0 °F 53% 30.09 in 10.0 mi ENE 3.5 mph - N/A   Clear
8:53 PM 64.9 °F - 54.0 °F 68% 30.09 in 10.0 mi East 3.5 mph - N/A   Clear
9:53 PM 61.0 °F - 54.0 °F 78% 30.09 in 10.0 mi East 4.6 mph - N/A   Clear
10:53 PM 57.9 °F - 53.1 °F 84% 30.10 in 10.0 mi East 5.8 mph - N/A   Clear
11:53 PM 57.9 °F - 52.0 °F 81% 30.11 in 10.0 mi SSE 3.5 mph - N/A   Clear